Location: Mathon
(52.1167°N, 2.4000°W)
Time: 21:07:55
(UTC+00:00)

Daily predictions for brighter satellites

Satellite Brightness Start Highest point End
(mag) Time Altitude Azimuth Time Altitude Azimuth Time Altitude Azimuth
Helios 1A Rocket 3.6 18:29:35 10° S 18:33:40 62° WSW 18:37:48 10° NNW
CSL-04 Rocket 3.8 18:28:34 10° SSE 18:33:55 60° ENE 18:39:23 10° N
NOSS 2-2 (D) 3.2 18:31:14 10° SSW 18:34:43 60° SE 18:38:44 10° NE
Cosmos 1937 Rocket 3.7 18:29:44 10° SSW 18:34:59 83° WNW 18:40:13 10° NNE
ATLAS 2AS CENTAUR R/B 4.1 18:29:33 10° SSE 18:35:03 21° ESE 18:40:32 10° ENE
Okean 2 Rocket 3.6 18:31:06 10° SSE 18:35:16 39° E 18:39:26 10° NNE
ATLAS 3B R/B 3.3 18:29:02 10° NW 18:35:27 43° NNE 18:42:06 10° E
YAOGAN 1 2.5 18:32:05 10° SSE 18:36:24 80° ENE 18:40:46 10° NNW
Cosmos 2227 Rocket 4.5 18:32:29 10° W 18:36:46 22° NNW 18:41:05 10° NNE
SKYMED 2 3.6 18:32:52 10° NNE 18:37:15 88° WNW 18:41:36 10° SSW
Abrixas rocket 3.1 18:36:35 10° WSW 18:39:11 32° S 18:41:47 10° SE
CREW DRAGON DEMO-1 DEB 3.4 18:38:04 10° W 18:41:00 50° SSW 18:43:57 10° ESE
CZ-4B R/B 4.0 18:38:28 10° N 18:41:28 27° WNW 18:44:27 10° SW
Cosmos 1536 Rocket 3.9 18:38:21 10° N 18:42:41 47° ENE 18:47:00 10° SSE
Cosmos 1125 Rocket 4.2 18:42:57 10° SSE 18:47:38 32° ESE 18:52:19 10° NE
SJ-6B 4.0 18:48:47 10° ESE 18:51:48 23° ENE 18:54:53 10° N
USA 238 DEB 4.1 18:45:28 10° NW 18:52:37 73° SW 19:00:03 10° SSE
USA 238 4.1 18:45:35 10° NW 18:52:44 73° SW 19:00:10 10° SSE
CZ-2D R/B 4.4 18:50:13 10° S 18:53:58 47° W 18:57:46 10° NNW
CZ-4 R/B 2.2 18:49:53 10° S 18:54:02 59° W 18:58:09 10° NNW
Cosmos 2150 Rocket 4.2 18:49:13 10° S 18:54:26 52° ESE 18:59:44 10° NNE
SJ-11-01 4.2 18:50:24 10° SSE 18:55:05 76° ENE 18:59:48 10° NNW
Cosmos 1674 3.2 18:51:25 10° N 18:55:05 40° ENE 18:58:43 10° SE
Cosmos 1092 Rocket 4.4 18:50:01 10° N 18:55:50 42° ENE 19:01:41 10° SE
CZ-2C R/B 3.3 18:50:46 10° SSE 18:56:13 89° W 19:01:57 10° NNW
Cosmos 1464 Rocket 4.0 18:50:10 10° S 18:56:13 65° E 19:02:23 10° NNE
Cosmos 1782 Rocket 4.4 18:52:42 10° SSW 18:57:05 57° WNW 19:01:30 10° N
Okean-O 3.7 18:53:38 10° S 18:57:56 49° W 19:02:15 10° NNW
MOS 1 Rocket 3.4 18:57:52 10° NNE 19:02:05 43° E 19:06:11 10° S
FREGAT/IRIS 3.7 19:04:41 18° E 19:05:26 20° ENE 19:07:28 10° NNE
In-Cosmos 22 4.3 19:03:57 10° NNW 19:09:16 78° W 19:14:39 10° S
Cosmos 1048 Rocket 4.4 19:05:04 10° NNW 19:10:23 69° WSW 19:15:42 10° SSE
ARGOS 3.1 19:06:26 10° SSE 19:11:47 77° ENE 19:17:12 10° NNW
CZ-2C R/B 3.4 19:07:12 10° NNE 19:12:11 32° E 19:17:10 10° SSE
Cosmos 1340 Rocket 4.2 19:15:11 18° E 19:15:34 18° E 19:18:21 10° NE
DMSP B5D1-3 4.5 19:11:49 10° NNE 19:16:57 83° ESE 19:22:03 10° SSW
Cosmos 1733 4.2 19:13:59 10° SSE 19:17:11 26° E 19:20:24 10° NNE
Lacrosse 5 rocket 2.3 19:13:01 10° WNW 19:17:12 44° N 19:20:43 15° ENE
Cosmos 2151 Rocket 3.5 19:13:25 10° S 19:17:52 73° E 19:22:24 10° NNE
Cosmos 2082 Rocket 3.3 19:13:00 10° NNW 19:17:54 29° NE 19:21:17 17° E
HJ-1C 3.9 19:15:23 10° S 19:18:39 60° W 19:21:57 10° NNW
MOS 1 4.5 19:13:46 10° SE 19:19:18 54° ENE 19:24:51 10° N
NOSS 2-2 (C) 3.7 19:15:56 10° WSW 19:19:29 61° NW 19:23:42 10° NE
BREEZE-M DEB (TANK) 4.1 19:18:37 10° W 19:21:23 30° SSW 19:27:36 11° SE
Cosmos 494 Rocket 4.1 19:17:54 10° NNW 19:23:11 79° WSW 19:28:27 10° SSE
COSMO-SKYMED 1 4.5 19:21:16 10° N 19:25:12 33° WNW 19:29:05 10° SW
Meteor 1-15 Rocket 4.2 19:23:02 10° S 19:28:37 63° E 19:34:20 10° NNE
Cosmos 1805 3.5 19:25:15 10° SSE 19:29:00 47° E 19:32:47 10° NNE
OBJECT-B 1.8 19:28:48 27° E 19:29:26 29° ENE 19:32:18 10° N
Ariane Rocket 2.9 19:28:35 10° SSE 19:33:38 74° ENE 19:38:44 10° NNW
SL-08 RB Rocket 3.6 19:29:05 10° SSE 19:33:39 86° ENE 19:38:13 10° NNW
SJ 16-02 4.3 19:32:52 10° WNW 19:35:07 14° NW 19:37:21 10° NNW
Cosmos 1269 Rocket 4.0 19:29:47 10° NNW 19:35:09 79° ENE 19:39:33 15° SSE
H-2A R/B 2.7 19:30:13 10° S 19:35:09 56° W 19:40:16 10° NNW
USA 116 4.4 19:31:41 10° N 19:35:13 55° WNW 19:39:09 10° SSW
Nadezhda 4 Rocket 4.2 19:30:22 10° NNW 19:36:29 74° W 19:42:34 10° S
KORONAS-FOTON 4.0 19:32:44 10° NNW 19:36:42 77° W 19:40:36 10° S
Cosmos 1626 2.2 19:36:47 10° N 19:40:27 53° ENE 19:42:02 29° SE
Okean 1-7 Rocket 4.5 19:36:29 10° N 19:40:36 32° ENE 19:41:50 28° E
Cosmos 2263 Rocket 4.1 19:38:24 10° WSW 19:43:18 30° NW 19:48:15 10° NNE
COSMOS 2406 3.2 19:38:36 10° NNW 19:44:18 72° ENE 19:47:56 23° SE
USA 186 1.9 19:42:34 15° S 19:45:06 73° WSW 19:48:26 10° NNW
MetOp-A 4.1 19:40:20 13° SSE 19:45:11 74° ENE 19:50:34 10° NNW
Cosmos 1455 Rocket 4.4 19:47:18 22° ENE 19:47:18 22° ENE 19:49:54 10° NE
ISS -3.9 19:43:27 10° W 19:46:51 82° S 19:47:46 45° E
Cosmos 1844 Rocket 2.7 19:41:34 10° SSW 19:47:09 82° WNW 19:52:49 10° NNE
ATLAS CENTAUR R/B 3.7 19:47:05 10° NNW 19:48:38 12° N 19:50:11 10° NNE
Cosmos 2278 Rocket 2.9 19:51:32 28° ESE 19:51:34 28° ESE 19:56:19 10° NE
Lacrosse 4 Rocket 2.0 19:47:59 10° NNW 19:51:52 40° NE 19:52:52 34° E
IRS-1A Rocket 4.4 19:48:38 10° SSE 19:54:32 81° WSW 20:00:23 10° NNW
Meteor 2-5 Rocket 3.8 19:49:05 10° NNW 19:54:47 85° WSW 20:00:34 10° S
Cosmos 1844 3.7 19:49:08 10° SSW 19:54:50 88° WNW 20:00:30 10° NNE
Meteor 1-22 Rocket 4.4 19:50:45 10° S 19:56:32 57° E 20:02:30 10° NNE
Cosmos 909 Rocket 4.3 19:50:12 10° NW 19:56:51 55° NE 19:59:55 30° ESE
Meteor 1-24 Rocket 3.6 19:51:32 10° NNW 19:57:07 81° ENE 20:01:37 17° SSE
Cosmos 2034 Rocket 4.4 19:51:06 10° SSW 19:57:26 69° WNW 20:03:46 10° N
Exosat Rocket 3.4 19:54:01 10° SSW 19:59:15 82° ESE 20:04:21 10° NNE
SL-14 R/B 3.1 19:56:27 10° N 20:00:24 79° E 20:01:54 37° SSE
Okean 1 Rocket 3.1 19:57:06 10° S 20:01:35 87° W 20:06:07 10° N
NOSS 3-4 (A) 3.4 19:56:22 10° SSW 20:02:07 55° SE 20:08:20 10° NE
NOSS 3-4 (C) 3.4 19:56:29 10° SSW 20:02:15 55° SE 20:08:26 10° NE
Resurs 01 Rocket 1.9 20:03:26 41° ESE 20:04:21 48° ENE 20:08:39 10° N
Cosmos 1833 Rocket 2.6 20:03:43 10° NNW 20:09:25 82° ENE 20:11:54 35° SE
Cosmos 1470 4.3 20:12:29 22° NE 20:12:29 22° NE 20:14:11 10° NNE
Cosmos 1766 3.3 20:06:50 10° SSW 20:10:46 78° WNW 20:14:45 10° N
CZ-2C R/B 4.4 20:06:39 10° NNE 20:09:58 35° ENE 20:09:58 35° ENE
Cosmos 2251 Rocket 3.8 20:07:03 10° NNW 20:12:20 53° ENE 20:13:44 42° ESE
CENTAUR R/B 4.0 20:06:19 10° NW 20:13:51 45° WSW 20:22:00 10° S
ERS-1 Rocket 4.3 20:17:40 24° ENE 20:17:43 24° ENE 20:21:42 10° N
IGS 5A 4.4 20:18:58 33° NE 20:18:58 33° NE 20:22:12 10° N
ARIANE 5 R/B 3.1 20:20:05 41° ENE 20:20:05 41° ENE 20:24:00 10° N
SPOT 3 Rocket 3.4 20:20:51 36° SSE 20:23:01 90° ENE 20:28:12 10° NNW
ATLAS 2AS CENTAUR R/B 2.9 20:17:00 10° SSW 20:24:54 71° SE 20:32:43 10° NE
Cosmos 1634 Rocket 3.9 20:18:48 10° S 20:24:59 88° W 20:31:16 10° N
SJ-6B 4.0 20:24:09 20° SSW 20:26:18 37° W 20:29:53 10° NNW
ATLAS 3B R/B 2.8 20:19:51 10° NW 20:26:41 77° SW 20:29:50 36° SSE
Cosmos 1892 Rocket 3.6 20:23:08 10° NNW 20:27:29 77° W 20:28:36 49° S
Resurs 1-3 3.7 20:26:17 43° S 20:27:41 74° WSW 20:32:06 10° NNW
Landsat 7 4.2 20:27:58 45° ENE 20:27:59 45° ENE 20:32:32 10° N
Cosmos 1125 Rocket 4.5 20:24:24 10° SW 20:29:33 48° WNW 20:34:44 10° NNE
Meteor 1-21 Rocket 4.4 20:26:42 10° N 20:32:23 54° ENE 20:33:15 49° ESE
SPOT 5 4.1 20:33:48 30° ENE 20:33:48 30° ENE 20:38:18 10° N
Cosmos 1655 Rocket 3.9 20:29:44 10° N 20:36:02 70° ENE 20:37:50 47° SE
Cosmos 1461 3.8 20:34:41 10° NW 20:39:17 44° NE 20:39:30 44° NE
CRYOSAT 2 4.2 20:46:03 10° N 20:50:59 90° WNW 20:51:20 78° S
Cosmos 1340 Rocket 3.6 20:50:43 40° WSW 20:51:40 50° WNW 20:55:35 10° N
CZ-2C R/B 3.5 20:47:20 10° N 20:52:42 51° WNW 20:58:05 10° SW
Lacrosse 5 rocket 1.8 20:52:21 10° WNW 20:56:20 68° NNW 20:56:20 68° NNW
Cosmos 2180 Rocket 4.4 20:57:17 46° S 20:59:20 85° E 21:05:46 10° N
MetOp-B 4.0 20:58:51 71° S 20:59:26 83° WSW 21:04:51 10° NNW
Cosmos 2098 Rocket 3.9 20:53:35 10° NNW 21:00:29 84° W 21:01:45 59° S
Cosmos 2279 Rocket 4.1 20:57:29 24° SSW 21:01:28 77° W 21:07:48 10° N
OBJECT-B 3.2 21:02:00 21° W 21:02:00 21° W 21:04:25 10° NW
Cosmos 2082 Rocket 2.2 20:56:54 10° NNW 21:02:31 72° WSW 21:03:08 66° SSW
Spot 2 Rocket 3.4 21:05:26 76° NNE 21:05:26 76° NNE 21:10:11 10° NNW
Cosmos 1602 Rocket 4.4 21:02:37 10° N 21:05:44 45° N 21:05:44 45° N
Meteor 2-21 4.4 21:03:30 10° N 21:09:42 65° ENE 21:09:42 65° ENE
Cosmos 1809 Rocket 4.3 21:07:48 10° N 21:14:02 78° ENE 21:14:13 77° E
Cosmos 1626 Rocket 4.4 21:14:12 10° NNW 21:17:39 50° NW 21:17:39 50° NW
Terra 3.1 21:21:44 33° NNE 21:21:44 33° NNE 21:24:41 10° N
Cosmos 1140 Rocket 4.2 21:17:20 10° NNW 21:21:18 45° NNE 21:21:18 45° NNE
ISS -0.7 21:20:16 10° W 21:20:44 13° W 21:20:44 13° W
Cosmos 1455 Rocket 4.2 21:24:23 42° WNW 21:24:23 42° WNW 21:28:12 10° N
Cosmos 407 Rocket 4.0 21:22:23 10° NNW 21:26:26 53° N 21:26:26 53° N
SPOT 1/Viking Rocket 3.8 21:29:23 64° NW 21:29:23 64° NW 21:33:55 10° NNW
ATLAS CENTAUR R/B 3.7 21:26:04 10° NNW 21:27:26 16° N 21:27:26 16° N
Lacrosse 4 Rocket 3.3 21:26:51 10° NW 21:29:10 25° W 21:29:10 25° W
Meteor 2-14 Rocket 4.4 21:28:44 10° N 21:34:33 80° N 21:34:33 80° N
Cosmos 2278 Rocket 2.6 21:33:01 35° WSW 21:35:17 62° NW 21:40:56 10° NNE
Resurs 01 Rocket 3.5 21:41:01 24° W 21:41:04 24° W 21:44:43 10° NW
Cosmos 2266 Rocket 4.4 21:38:50 10° NNW 21:44:41 53° W 21:45:08 52° WSW
NOSS 3-4 (A) 4.2 21:47:18 10° WSW 21:53:10 49° NNW 21:59:35 10° NE
NOSS 3-4 (C) 4.2 21:47:23 10° WSW 21:53:16 50° NNW 21:59:42 10° NE
ERS-1 Rocket 4.0 21:57:40 43° NW 21:57:40 43° NW 22:01:10 10° NNW
SPOT 5 4.2 22:13:02 41° NW 22:13:02 41° NW 22:16:46 10° NNW
ATLAS 2AS CENTAUR R/B 3.7 22:08:40 10° WSW 22:16:24 51° NNW 22:23:54 10° NE
ATLAS 3B R/B 4.4 22:11:35 10° WNW 22:16:28 21° WSW 22:17:06 21° WSW
Cosmos 1943 Rocket 4.5 22:24:03 14° NE 22:24:03 14° NE 22:24:51 10° NE
NOSS 3-1 (C) 4.1 22:30:54 10° NW 22:37:24 67° N 22:37:24 67° N
CZ-4C R/B 4.2 22:45:17 23° NE 22:45:17 23° NE 22:47:47 10° NE
COSMOS 2455 4.1 22:57:42 36° N 22:57:42 36° N 23:01:50 10° NNE
Cosmos 2297 Rocket 4.1 22:52:31 10° NNW 22:56:27 23° NNE 22:56:27 23° NNE
Terra 4.3 23:00:37 18° NW 23:00:37 18° NW 23:02:12 10° NW
Cosmos 2369 Rocket 4.3 23:10:31 20° NNE 23:10:31 20° NNE 23:12:07 10° NNE
SL-16 R/B 4.4 23:50:37 22° NE 23:50:53 22° NE 23:55:23 10° N
